Golden Iris — 3FZK4 — position and weather

sailwx.info

Track history (hours):
 
Tides and Currents Weather Stations Pressure Air Temp Water Temp Dewpoint Dewpoint Depression Visibility Wind Speed Wind Dir Waves Ship Positions

Golden Iris

Last reported at 2014-Sep-02 20:31 UTC. Time now 2014-Sep-03 07:25 UTC.
Position N 35°17' E 026°36'.

Length 163 m; draft 6 m.

Type: Passenger vessel. MMSI: 371771000.

Date/timePositionNaut miles runAvg speedWind from/ knotsBaromVisibWave heightAir tempDewpointWater temp
2014-Sep-02 20:31N 35°17' E 026°36'1414.9
2014-Sep-02 19:33N 35°22' E 026°20'1413.5
2014-Sep-02 18:33N 35°21' E 026°03'1414.2
2014-Sep-02 17:33N 35°14' E 025°49'0 0.0
2014-Sep-02 07:33N 35°14' E 025°48'3611.9
2014-Sep-02 04:33N 35°35' E 026°24'1413.3
2014-Sep-02 03:30N 35°43' E 026°38'294 9.8
2014-Aug-31 21:31N 34°14' E 032°20'1414.1
2014-Aug-31 20:33N 34°06' E 032°34'1414.4
2014-Aug-31 19:33N 33°59' E 032°48'1514.9
2014-Aug-31 18:32N 33°50' E 033°03'1515.0
2014-Aug-31 17:34N 33°42' E 033°18'57 3.0
2014-Aug-30 22:33N 33°16' E 034°20'1210.3
2014-Aug-30 21:25N 33°26' E 034°13'910.6
2014-Aug-30 20:31N 33°35' E 034°09'1010.5
2014-Aug-30 19:33N 33°44' E 034°04'1010.5
2014-Aug-30 18:33N 33°54' E 033°59'1010.4
2014-Aug-30 17:33N 34°04' E 033°56'1110.8
2014-Aug-30 16:33N 34°14' E 033°53'1110.9
2014-Aug-30 15:33N 34°25' E 033°49'2210.7
2014-Aug-30 13:30N 34°46' E 033°43'10 0.6
2014-Aug-29 19:29N 34°56' E 033°39'56 3.3
2014-Aug-29 02:27N 34°05' E 034°07'9 9.5
2014-Aug-29 01:33N 33°57' E 034°11'10 9.5
2014-Aug-29 00:33N 33°48' E 034°15'64 3.0
2014-Aug-28 03:07N 32°53' E 034°53'6614.5
2014-Aug-27 22:33N 33°09' E 033°37'1515.1
2014-Aug-27 21:32N 33°14' E 033°19'1514.8
2014-Aug-27 20:33N 33°19' E 033°03'1514.7
2014-Aug-27 19:33N 33°24' E 032°47'1514.9
2014-Aug-27 18:34N 33°29' E 032°30'1514.9
2014-Aug-27 17:33N 33°35' E 032°13'1514.7
2014-Aug-27 16:33N 33°40' E 031°57'1514.8
2014-Aug-27 15:33N 33°45' E 031°40'1514.5
2014-Aug-27 14:33N 33°50' E 031°24'1414.5
2014-Aug-27 13:33N 33°55' E 031°07'1514.7
2014-Aug-27 12:34N 34°00' E 030°51'3015.0
2014-Aug-27 10:33N 34°11' E 030°17'23314.6
2014-Aug-26 18:33N 35°52' E 026°00'1514.7
2014-Aug-26 17:32N 36°02' E 025°46'1414.4
2014-Aug-26 16:34N 36°11' E 025°34'1514.5
2014-Aug-26 15:34N 36°21' E 025°20'5 4.7
2014-Aug-26 14:29N 36°25' E 025°25'0 0.0
2014-Aug-26 13:29N 36°25' E 025°25'0 0.0
2014-Aug-26 12:29N 36°25' E 025°25'0 0.0
2014-Aug-26 11:29N 36°25' E 025°25'0 0.0
2014-Aug-26 10:29N 36°25' E 025°25'0 0.0
2014-Aug-26 09:11N 36°25' E 025°25'0 0.1
2014-Aug-26 08:33N 36°25' E 025°25'0 0.4
2014-Aug-26 07:32N 36°24' E 025°25'1 1.4
2014-Aug-26 06:33N 36°23' E 025°25'4 4.0
2014-Aug-26 05:33N 36°21' E 025°21'1413.7
2014-Aug-26 04:33N 36°17' E 025°37'1714.2
2014-Aug-26 03:22N 36°15' E 025°58'1114.1
2014-Aug-26 02:33N 36°14' E 026°12'1414.2
2014-Aug-26 01:33N 36°15' E 026°29'1414.0
2014-Aug-26 00:33N 36°15' E 026°47'1414.0
2014-Aug-25 23:33N 36°17' E 027°04'1514.4
2014-Aug-25 22:32N 36°19' E 027°22'24410.6
2014-Aug-24 23:28N 34°33' E 031°51'1314.3
2014-Aug-24 22:33N 34°26' E 032°05'1414.3
2014-Aug-24 21:33N 34°18' E 032°19'1414.3
2014-Aug-24 20:33N 34°10' E 032°34'1514.8
2014-Aug-24 19:33N 34°02' E 032°49'1515.0
2014-Aug-24 18:33N 33°54' E 033°04'1515.0
2014-Aug-24 17:33N 33°46' E 033°19'1515.1
2014-Aug-24 16:33N 33°37' E 033°34'1515.0
2014-Aug-24 15:33N 33°29' E 033°49'1514.9
2014-Aug-24 14:33N 33°21' E 034°04'1514.7
2014-Aug-24 13:33N 33°13' E 034°19'1414.3
2014-Aug-24 12:33N 33°05' E 034°33'1514.4
2014-Aug-24 11:33N 32°57' E 034°48'1313.2
2014-Aug-24 10:32N 32°50' E 035°01'1 1.3
2014-Aug-24 09:31N 32°49' E 035°00'0 0.0
2014-Aug-24 06:28N 32°49' E 035°00'0 0.0
2014-Aug-24 05:25N 32°49' E 035°00'0 0.0
2014-Aug-24 04:31N 32°49' E 035°00'4 3.8
2014-Aug-24 03:23N 32°52' E 034°57'910.7
2014-Aug-24 02:30N 32°54' E 034°45'2511.9
2014-Aug-24 00:22N 32°59' E 034°16'2411.7
2014-Aug-23 22:19N 33°08' E 033°49'912.1
2014-Aug-23 21:33N 33°13' E 033°40'1212.0
2014-Aug-23 20:33N 33°20' E 033°29'  
Track history (hours):
 
Tides and Currents Weather Stations Pressure Air Temp Water Temp Dewpoint Dewpoint Depression Visibility Wind Speed Wind Dir Waves Ship Positions

Golden Iris

Last reported at 2014-Sep-02 20:31 UTC. Time now 2014-Sep-03 07:25 UTC.
Position N 35°17' E 026°36'.

Length 163 m; draft 6 m.

Type: Passenger vessel. MMSI: 371771000.

Date/timePositionNaut miles runAvg speedWind from/ knotsBaromVisibWave heightAir tempDewpointWater temp
2014-Sep-02 20:31N 35°17' E 026°36'1414.9
2014-Sep-02 19:33N 35°22' E 026°20'1413.5
2014-Sep-02 18:33N 35°21' E 026°03'1414.2
2014-Sep-02 17:33N 35°14' E 025°49'0 0.0
2014-Sep-02 07:33N 35°14' E 025°48'3611.9
2014-Sep-02 04:33N 35°35' E 026°24'1413.3
2014-Sep-02 03:30N 35°43' E 026°38'294 9.8
2014-Aug-31 21:31N 34°14' E 032°20'1414.1
2014-Aug-31 20:33N 34°06' E 032°34'1414.4
2014-Aug-31 19:33N 33°59' E 032°48'1514.9
2014-Aug-31 18:32N 33°50' E 033°03'1515.0
2014-Aug-31 17:34N 33°42' E 033°18'57 3.0
2014-Aug-30 22:33N 33°16' E 034°20'1210.3
2014-Aug-30 21:25N 33°26' E 034°13'910.6
2014-Aug-30 20:31N 33°35' E 034°09'1010.5
2014-Aug-30 19:33N 33°44' E 034°04'1010.5
2014-Aug-30 18:33N 33°54' E 033°59'1010.4
2014-Aug-30 17:33N 34°04' E 033°56'1110.8
2014-Aug-30 16:33N 34°14' E 033°53'1110.9
2014-Aug-30 15:33N 34°25' E 033°49'2210.7
2014-Aug-30 13:30N 34°46' E 033°43'10 0.6
2014-Aug-29 19:29N 34°56' E 033°39'56 3.3
2014-Aug-29 02:27N 34°05' E 034°07'9 9.5
2014-Aug-29 01:33N 33°57' E 034°11'10 9.5
2014-Aug-29 00:33N 33°48' E 034°15'64 3.0
2014-Aug-28 03:07N 32°53' E 034°53'6614.5
2014-Aug-27 22:33N 33°09' E 033°37'1515.1
2014-Aug-27 21:32N 33°14' E 033°19'1514.8
2014-Aug-27 20:33N 33°19' E 033°03'1514.7
2014-Aug-27 19:33N 33°24' E 032°47'1514.9
2014-Aug-27 18:34N 33°29' E 032°30'1514.9
2014-Aug-27 17:33N 33°35' E 032°13'1514.7
2014-Aug-27 16:33N 33°40' E 031°57'1514.8
2014-Aug-27 15:33N 33°45' E 031°40'1514.5
2014-Aug-27 14:33N 33°50' E 031°24'1414.5
2014-Aug-27 13:33N 33°55' E 031°07'1514.7
2014-Aug-27 12:34N 34°00' E 030°51'3015.0
2014-Aug-27 10:33N 34°11' E 030°17'23314.6
2014-Aug-26 18:33N 35°52' E 026°00'1514.7
2014-Aug-26 17:32N 36°02' E 025°46'1414.4
2014-Aug-26 16:34N 36°11' E 025°34'1514.5
2014-Aug-26 15:34N 36°21' E 025°20'5 4.7
2014-Aug-26 14:29N 36°25' E 025°25'0 0.0
2014-Aug-26 13:29N 36°25' E 025°25'0 0.0
2014-Aug-26 12:29N 36°25' E 025°25'0 0.0
2014-Aug-26 11:29N 36°25' E 025°25'0 0.0
2014-Aug-26 10:29N 36°25' E 025°25'0 0.0
2014-Aug-26 09:11N 36°25' E 025°25'0 0.1
2014-Aug-26 08:33N 36°25' E 025°25'0 0.4
2014-Aug-26 07:32N 36°24' E 025°25'1 1.4
2014-Aug-26 06:33N 36°23' E 025°25'4 4.0
2014-Aug-26 05:33N 36°21' E 025°21'1413.7
2014-Aug-26 04:33N 36°17' E 025°37'1714.2
2014-Aug-26 03:22N 36°15' E 025°58'1114.1
2014-Aug-26 02:33N 36°14' E 026°12'1414.2
2014-Aug-26 01:33N 36°15' E 026°29'1414.0
2014-Aug-26 00:33N 36°15' E 026°47'1414.0
2014-Aug-25 23:33N 36°17' E 027°04'1514.4
2014-Aug-25 22:32N 36°19' E 027°22'24410.6
2014-Aug-24 23:28N 34°33' E 031°51'1314.3
2014-Aug-24 22:33N 34°26' E 032°05'1414.3
2014-Aug-24 21:33N 34°18' E 032°19'1414.3
2014-Aug-24 20:33N 34°10' E 032°34'1514.8
2014-Aug-24 19:33N 34°02' E 032°49'1515.0
2014-Aug-24 18:33N 33°54' E 033°04'1515.0
2014-Aug-24 17:33N 33°46' E 033°19'1515.1
2014-Aug-24 16:33N 33°37' E 033°34'1515.0
2014-Aug-24 15:33N 33°29' E 033°49'1514.9
2014-Aug-24 14:33N 33°21' E 034°04'1514.7
2014-Aug-24 13:33N 33°13' E 034°19'1414.3
2014-Aug-24 12:33N 33°05' E 034°33'1514.4
2014-Aug-24 11:33N 32°57' E 034°48'1313.2
2014-Aug-24 10:32N 32°50' E 035°01'1 1.3
2014-Aug-24 09:31N 32°49' E 035°00'0 0.0
2014-Aug-24 06:28N 32°49' E 035°00'0 0.0
2014-Aug-24 05:25N 32°49' E 035°00'0 0.0
2014-Aug-24 04:31N 32°49' E 035°00'4 3.8
2014-Aug-24 03:23N 32°52' E 034°57'910.7
2014-Aug-24 02:30N 32°54' E 034°45'2511.9
2014-Aug-24 00:22N 32°59' E 034°16'2411.7
2014-Aug-23 22:19N 33°08' E 033°49'912.1
2014-Aug-23 21:33N 33°13' E 033°40'1212.0
2014-Aug-23 20:33N 33°20' E 033°29'  

Dump ship's entire track history